Content
SEND FEEDBACK

Daily
Averages
Monthly
Summary
United States of America

NEW YORK - CENTRAL PARK, NEW YORK


Home > North America > United States > New York
Elevation: 14 feet     Latitude: 40 47N     Longitude: 073 58W

WEATHER
 
SELECT A DAY
Number of Records: 148,039;   Date Range: 11/1/95 - 7/23/14
 
SHARE

PRINT THIS DATA

[ ← Previous Day ]
WEATHER ALMANAC - JUNE 21, 2013
[ Next Day → ]
[ °C ]   °F
Weather ElementAverageHighLow
Temperature71.9 °F81 °F (2:51 pm)64 °F (3:51 am)
Dewpoint51.8 °F57 °F (2:51 pm)43 °F (1:51 am)
Humidity49.4 %63 % (6:51 am)42 % (1:51 am)
Barometer30.27 in30.31 in (8:51 am)30.24 in (5:51 pm)
Wind Speed5 mph8.1 mph (1:51 am)
Weather ElementAverage
Visibility10 mi
Wind DirectionNE (42.6 °)

Weather ElementTotal
Precipitation---
Cooling Degree Days7.5 (Base 65)
Growing Degree Days22.5 (Base 50)
Averaged from 23 records on June 21, 2013
WEATHER CONDITIONS BREAKOUT
WIND DIRECTION BREAKOUT
WEATHER BY HOUR - JUNE 21, 2013
[ °C ]   °F
Local TimeTemperatureDewpointHumidityBarometerVisibilityWind DirectionWind SpeedGust SpeedPrecipitationEventsConditions
1:51 AM66.9 °F43.0 °F42 %30.28 in10.0 miSW (230°)8.1 mphClear
2:51 AM66.0 °F44.1 °F45 %30.28 in10.0 miVariable6.9 mphClear
3:51 AM64.0 °F46.0 °F52 %30.27 in10.0 miNorthClear
4:51 AM64.9 °F46.9 °F52 %30.28 in10.0 miWSW (250°)5.8 mphClear
5:51 AM64.0 °F48.9 °F58 %30.29 in10.0 miWest (260°)4.6 mphClear
6:51 AM64.0 °F51.1 °F63 %30.30 in10.0 miVariable3.5 mphClear
7:51 AM66.0 °F51.1 °F59 %30.30 in10.0 miVariable3.5 mphClear
8:51 AM69.1 °F50.0 °F51 %30.31 in10.0 miVariable5.8 mphClear
9:51 AM72.0 °F51.1 °F48 %30.29 in10.0 miCalmClear
10:51 AM75.0 °F53.1 °F46 %30.30 in10.0 miVariable5.8 mphClear
11:51 AM78.1 °F55.0 °F45 %30.29 in10.0 miVariable3.5 mphClear
12:51 PM80.1 °F55.9 °F43 %30.29 in10.0 miVariable4.6 mphClear
1:51 PM80.1 °F55.0 °F42 %30.27 in10.0 miVariable5.8 mphClear
2:51 PM81.0 °F57.0 °F44 %30.27 in10.0 miVariable3.5 mphClear
3:51 PM79.0 °F55.9 °F45 %30.26 in10.0 miVariable3.5 mphClear
4:51 PM77.0 °F54.0 °F45 %30.25 in10.0 miVariable6.9 mphClear
5:51 PM75.9 °F53.1 °F45 %30.24 in10.0 miNorthClear
6:51 PM75.0 °F54.0 °F48 %30.25 in10.0 miVariable3.5 mphClear
7:51 PM73.0 °F55.0 °F53 %30.25 in10.0 miVariable5.8 mphClear
8:51 PM72.0 °F54.0 °F53 %30.25 in10.0 miVariable4.6 mphClear
9:51 PM71.1 °F53.1 °F53 %30.26 in10.0 miVariable5.8 mphClear
10:51 PM70.0 °F53.1 °F55 %30.26 in10.0 miVariable4.6 mphClear
11:51 PM70.0 °F50.0 °F49 %30.26 in10.0 miWSW (240°)8.1 mphClear
Hourly data recorded from KNYC, located miles away from New York - Central Park, New York







STORIES FROM OUR PARTNERS